• In Hungary
  • List of Countries
  • For 7 days
  • Water Temperature
  • Satellite Maps
  • Weather Map
  • News
  • Weather Widgets
  • user-avatar
    Login

    Hourly Weather Kawkaban

    Today, 22 September, Saturday

    Time Temperature Precipitation Wind Pressure Humidity
    00:00 +17°C° 0.1 mm 2 mps 555 mmHg 43%
    01:00 +18°C° 0 mm 1 mps 554 mmHg 44%
    02:00 +16°C° 0 mm 1 mps 554 mmHg 44%
    03:00 +16°C° 0 mm 1 mps 554 mmHg 45%
    04:00 +15°C° 0 mm 1 mps 554 mmHg 45%
    05:00 +15°C° 0 mm 1 mps 554 mmHg 44%
    06:00 +15°C° 0 mm 1 mps 554 mmHg 44%
    07:00 +16°C° 0 mm 2 mps 555 mmHg 38%
    08:00 +18°C° 0 mm 3 mps 556 mmHg 33%
    09:00 +20°C° 0 mm 4 mps 557 mmHg 27%
    10:00 +21°C° 0 mm 5 mps 558 mmHg 25%
    11:00 +22°C° 0 mm 6 mps 558 mmHg 22%
    12:00 +23°C° 0 mm 6 mps 558 mmHg 20%
    13:00 +23°C° 0.1 mm 7 mps 558 mmHg 21%
    14:00 +23°C° 0.1 mm 7 mps 557 mmHg 23%
    15:00 +23°C° 0.1 mm 7 mps 557 mmHg 24%
    16:00 +22°C° 1 mm 6 mps 557 mmHg 27%
    17:00 +21°C° 1 mm 6 mps 556 mmHg 31%
    18:00 +20°C° 1 mm 5 mps 556 mmHg 34%
    19:00 +19°C° 0.6 mm 4 mps 556 mmHg 36%
    20:00 +18°C° 0.6 mm 4 mps 556 mmHg 38%
    21:00 +18°C° 0.6 mm 3 mps 556 mmHg 40%
    22:00 +17°C° 0.4 mm 2 mps 556 mmHg 40%
    23:00 +17°C° 0.4 mm 2 mps 556 mmHg 40%

    Tomorrow, 23 September, Sunday

    Time Temperature Precipitation Wind Pressure Humidity
    00:00 +16°C° 0.4 mm 2 mps 555 mmHg 40%
    01:00 +16°C° 0 mm 2 mps 555 mmHg 40%
    02:00 +15°C° 0 mm 1 mps 555 mmHg 39%
    03:00 +15°C° 0 mm 1 mps 554 mmHg 38%
    04:00 +15°C° 0 mm 1 mps 554 mmHg 38%
    05:00 +14°C° 0 mm 1 mps 554 mmHg 37%
    06:00 +14°C° 0 mm 1 mps 554 mmHg 36%
    07:00 +16°C° 0 mm 3 mps 556 mmHg 32%
    08:00 +17°C° 0 mm 5 mps 557 mmHg 28%
    09:00 +20°C° 0 mm 6 mps 558 mmHg 23%
    10:00 +22°C° 0 mm 7 mps 559 mmHg 21%
    11:00 +23°C° 0 mm 7 mps 559 mmHg 19%
    12:00 +24°C° 0 mm 8 mps 559 mmHg 17%
    13:00 +24°C° 0 mm 8 mps 559 mmHg 18%
    14:00 +24°C° 0 mm 7 mps 558 mmHg 19%
    15:00 +24°C° 0 mm 7 mps 558 mmHg 20%
    16:00 +23°C° 0.7 mm 7 mps 557 mmHg 24%
    17:00 +22°C° 0.7 mm 6 mps 556 mmHg 28%
    18:00 +20°C° 0.7 mm 5 mps 556 mmHg 32%
    19:00 +20°C° 0.2 mm 4 mps 556 mmHg 35%
    20:00 +19°C° 0.2 mm 3 mps 556 mmHg 38%
    21:00 +18°C° 0.2 mm 2 mps 556 mmHg 42%
    22:00 +19°C° 0 mm 1 mps 556 mmHg 43%
    23:00 +18°C° 0 mm 1 mps 555 mmHg 45%

    Day after tomorrow, 24 September, Monday

    Time Temperature Precipitation Wind Pressure Humidity
    00:00 +18°C° 0 mm 1 mps 555 mmHg 46%
    01:00 +16°C° 0 mm 1 mps 555 mmHg 47%
    02:00 +16°C° 0 mm 1 mps 554 mmHg 48%
    03:00 +15°C° 0 mm 0 mps 554 mmHg 49%
    04:00 +14°C° 0 mm 0 mps 554 mmHg 49%
    05:00 +14°C° 0 mm 0 mps 554 mmHg 50%
    06:00 +13°C° 0 mm 0 mps 553 mmHg 51%
    07:00 +16°C° 0 mm 1 mps 555 mmHg 44%
    08:00 +18°C° 0 mm 2 mps 556 mmHg 37%
    09:00 +20°C° 0 mm 3 mps 557 mmHg 30%
    10:00 +21°C° 0 mm 4 mps 558 mmHg 27%
    11:00 +22°C° 0 mm 5 mps 558 mmHg 24%
    12:00 +25°C° 0 mm 5 mps 558 mmHg 21%
    13:00 +24°C° 0 mm 6 mps 558 mmHg 22%
    14:00 +24°C° 0 mm 6 mps 557 mmHg 23%
    15:00 +24°C° 0 mm 6 mps 557 mmHg 24%
    16:00 +23°C° 0.7 mm 6 mps 556 mmHg 28%
    17:00 +21°C° 0.7 mm 5 mps 556 mmHg 32%
    18:00 +20°C° 0.7 mm 4 mps 555 mmHg 36%
    19:00 +20°C° 0.2 mm 4 mps 555 mmHg 39%
    20:00 +19°C° 0.2 mm 3 mps 556 mmHg 42%
    21:00 +18°C° 0.2 mm 3 mps 556 mmHg 45%
    22:00 +18°C° 0.1 mm 2 mps 555 mmHg 46%
    23:00 +18°C° 0.1 mm 2 mps 555 mmHg 48%

    25 September, Tuesday

    Time Temperature Precipitation Wind Pressure Humidity
    00:00 +18°C° 0.1 mm 1 mps 555 mmHg 50%
    01:00 +18°C° 0 mm 1 mps 554 mmHg 50%
    02:00 +16°C° 0 mm 1 mps 554 mmHg 50%
    03:00 +16°C° 0 mm 1 mps 553 mmHg 51%
    04:00 +16°C° 0 mm 1 mps 553 mmHg 50%
    05:00 +15°C° 0 mm 1 mps 553 mmHg 49%
    06:00 +15°C° 0 mm 1 mps 554 mmHg 48%
    07:00 +17°C° 0 mm 2 mps 555 mmHg 42%
    08:00 +19°C° 0 mm 3 mps 556 mmHg 35%
    09:00 +20°C° 0 mm 4 mps 557 mmHg 29%
    10:00 +21°C° 0 mm 5 mps 558 mmHg 27%
    11:00 +22°C° 0 mm 5 mps 558 mmHg 24%
    12:00 +23°C° 0 mm 6 mps 558 mmHg 22%
    13:00 +23°C° 0 mm 6 mps 557 mmHg 24%
    14:00 +23°C° 0 mm 6 mps 557 mmHg 25%
    15:00 +23°C° 0 mm 6 mps 556 mmHg 27%
    16:00 +22°C° 0.4 mm 6 mps 556 mmHg 29%
    17:00 +21°C° 0.4 mm 5 mps 555 mmHg 32%
    18:00 +20°C° 0.4 mm 5 mps 555 mmHg 35%
    19:00 +20°C° 0.1 mm 4 mps 555 mmHg 37%
    20:00 +19°C° 0.1 mm 3 mps 555 mmHg 40%
    21:00 +18°C° 0.1 mm 2 mps 556 mmHg 43%
    22:00 +18°C° 0 mm 2 mps 555 mmHg 44%
    23:00 +18°C° 0 mm 2 mps 555 mmHg 44%

    26 September, Wednesday

    Time Temperature Precipitation Wind Pressure Humidity
    00:00 +17°C° 0 mm 2 mps 555 mmHg 45%
    01:00 +17°C° 0 mm 2 mps 554 mmHg 45%
    02:00 +16°C° 0 mm 1 mps 554 mmHg 45%
    03:00 +16°C° 0 mm 1 mps 553 mmHg 44%
    04:00 +15°C° 0 mm 1 mps 554 mmHg 43%
    05:00 +15°C° 0 mm 1 mps 554 mmHg 43%
    06:00 +15°C° 0 mm 1 mps 554 mmHg 42%
    07:00 +16°C° 0 mm 2 mps 555 mmHg 36%
    08:00 +18°C° 0 mm 3 mps 556 mmHg 31%
    09:00 +20°C° 0 mm 4 mps 557 mmHg 25%
    10:00 +21°C° 0 mm 4 mps 557 mmHg 23%
    11:00 +22°C° 0 mm 5 mps 557 mmHg 20%
    12:00 +23°C° 0 mm 5 mps 558 mmHg 17%
    13:00 +23°C° 0 mm 5 mps 557 mmHg 18%
    14:00 +23°C° 0 mm 6 mps 557 mmHg 19%
    15:00 +23°C° 0 mm 6 mps 556 mmHg 20%
    16:00 +22°C° 0.1 mm 6 mps 556 mmHg 23%
    17:00 +21°C° 0.1 mm 5 mps 556 mmHg 26%
    18:00 +20°C° 0.1 mm 5 mps 556 mmHg 29%
    19:00 +20°C° 0.2 mm 4 mps 556 mmHg 31%
    20:00 +19°C° 0.2 mm 3 mps 556 mmHg 34%
    21:00 +18°C° 0.2 mm 2 mps 556 mmHg 36%
    22:00 +18°C° 0.1 mm 2 mps 555 mmHg 37%
    23:00 +17°C° 0.1 mm 2 mps 555 mmHg 38%

    27 September, Thursday

    Time Temperature Precipitation Wind Pressure Humidity
    00:00 +17°C° 0.1 mm 2 mps 555 mmHg 38%
    01:00 +16°C° 0 mm 2 mps 554 mmHg 38%
    02:00 +16°C° 0 mm 1 mps 554 mmHg 39%
    03:00 +15°C° 0 mm 1 mps 553 mmHg 39%
    04:00 +15°C° 0 mm 1 mps 554 mmHg 38%
    05:00 +15°C° 0 mm 1 mps 554 mmHg 37%
    06:00 +14°C° 0 mm 1 mps 554 mmHg 37%
    07:00 +16°C° 0 mm 2 mps 555 mmHg 31%
    08:00 +18°C° 0 mm 3 mps 556 mmHg 25%
    09:00 +20°C° 0 mm 4 mps 558 mmHg 20%
    10:00 +21°C° 0 mm 5 mps 558 mmHg 18%
    11:00 +22°C° 0 mm 5 mps 558 mmHg 15%
    12:00 +24°C° 0 mm 6 mps 558 mmHg 13%
    13:00 +24°C° 0 mm 6 mps 558 mmHg 14%
    14:00 +24°C° 0 mm 6 mps 557 mmHg 15%
    15:00 +24°C° 0 mm 7 mps 557 mmHg 16%
    16:00 +23°C° 0 mm 6 mps 556 mmHg 19%
    17:00 +22°C° 0 mm 6 mps 556 mmHg 22%
    18:00 +21°C° 0 mm 6 mps 556 mmHg 26%
    19:00 +20°C° 0.4 mm 4 mps 556 mmHg 29%
    20:00 +19°C° 0.4 mm 3 mps 556 mmHg 32%
    21:00 +18°C° 0.4 mm 2 mps 556 mmHg 35%
    22:00 +18°C° 0.3 mm 2 mps 555 mmHg 36%
    23:00 +17°C° 0.3 mm 2 mps 555 mmHg 37%
    Show more